Voltar ao catálogo

STARLINK-2609

AtivoComunicaçõesVLEO
NORAD 48373·PAYLOAD·🇺🇸 United States

Lançado May 4, 2021 de Cape Canaveral Space Force Station

Loading…

Próximas Passagens (próximas 24 horas)

TLE

AtualizadoSource: CelesTrak SupGP

Época: Sep 14, 2026, 14:16 UTC

1 48373C 21038W   26257.59493056  .00024826  00000+0  79866-3 0  2579
2 48373  53.1606 186.3588 0001313  87.9035 273.8465 15.31676486    10

Acompanhe STARLINK-2609 em tempo real com AllMySat

Download on the App Store